Regional Weather Roundup
Issued by NWS State College, PA

Home | Current Version | Previous Version | Text Only | Print | Product List | Glossary Off
Versions: 1 2 3 4 5 6 7 8 9 10 11 12 13 14 15 16 17 18 19 20 21 22 23 24 25 26 27 28 29 30 31 32 33 34 35 36 37 38 39 40 41 42 43 44 45 46 47 48 49 50

000
ASUS41 KCTP 241203
RWRCTP

REGIONAL WEATHER ROUNDUP
NATIONAL WEATHER SERVICE STATE COLLEGE PA
700 AM EST FRI NOV 24 2017

Note: "fair" indicates few or no clouds below 12,000 feet with no
significant weather and/or obstructions to visibility.

* = STATION THAT DOES NOT REPORT PRECIPITATION /E.G. RAIN...SNOW...ETC/
    THUNDER OR FOG.

PAZ002>004-007>009-013>016-020>023-029>032-241300-
WESTERN PENNSYLVANIA

CITY           SKY/WX    TMP DP  RH WIND       PRES   REMARKS
ERIE           CLEAR     34  23  64 S14       29.93F
MEADVILLE      CLEAR     29  23  78 S7        29.95S
FRANKLIN*      NOT AVBL
NEW CASTLE     FAIR      29  24  82 VRB3      30.00R
BEAVER COUNTY  NOT AVBL
BUTLER*        CLOUDY    27  22  81 CALM      30.01R
PITTSBURGH INT CLOUDY    28  22  78 CALM      30.00R
PITTSBURGH     CLOUDY    30  19  63 S8        30.00R
INDIANA*       CLEAR     25  23  93 CALM      30.04S
LATROBE        CLEAR     25  21  86 CALM      30.02R
WASHINGTON CO* CLOUDY    25  21  85 CALM      30.03R
$$

PAZ004>006-010>012-017>019-024>028-033>037-041-042-045-046-049>053-241300-
CENTRAL PENNSYLVANIA

CITY           SKY/WX    TMP DP  RH WIND       PRES   REMARKS
BRADFORD       CLEAR     27  21  78 S5        29.93S
DUBOIS         CLOUDY    28  19  69 S3        29.96S
CLEARFIELD     CLOUDY    25  22  88 CALM      30.00S
JOHNSTOWN      CLOUDY    30  20  66 S6        29.97R
ALTOONA        CLEAR     30  20  66 CALM      30.01R
STATE COLLEGE  CLEAR     30  19  64 CALM      30.01R
WILLIAMSPORT   CLOUDY    28  24  85 CALM      30.04R
SELINSGROVE    CLOUDY    23  22  96 CALM      30.06S
FT INDIANTOWN  CLOUDY    21  21  99 CALM      30.06R
CAPITAL CITY   CLOUDY    26  21  81 W3        30.07R
HARRISBURG     CLOUDY    26  24  92 N5        30.06R
YORK           CLOUDY    20  20 100 CALM      30.06R
$$

PAZ038>040-043-044-047-048-054-055-060>062-067>071-241300-
EASTERN PENNSYLVANIA

CITY           SKY/WX    TMP DP  RH WIND       PRES   REMARKS
SCRANTON       CLOUDY    30  21  69 CALM      30.02R
MOUNT POCONO   CLOUDY    27  20  75 W6        29.97R
ALLENTOWN      CLOUDY    25  20  81 NW5       30.06R
QUAKERTOWN*    CLOUDY    23  19  86 CALM      30.05S
READING        CLOUDY    25  24  96 CALM      30.06R
LANCASTER      CLEAR     25  23  92 CALM      30.06R
COATESVILLE    CLOUDY    30  23  74 CALM      30.05S
POTTSTOWN      CLOUDY    23  21  92 CALM      30.07S
BLUE BELL      CLOUDY    23  23 100 CALM      30.07S
DOYLESTOWN     CLOUDY    25  21  85 CALM      30.05R
WILLOW GROVE   NOT AVBL
NORTH PHILA    CLEAR     29  23  78 CALM      30.08S
PHILADELPHIA   CLEAR     32  27  81 W3        30.08S
$$




USA.gov is the U.S. government's official web portal to all federal, state and local government web resources and services.